Location: Red Shale Campground
(45.5700°N, 106.1600°W)
Time: 16:17:31
(UTC-06:00)

Daily predictions for brighter satellites

Satellite Brightness Start Highest point End
(mag) Time Altitude Azimuth Time Altitude Azimuth Time Altitude Azimuth
SPOT 5 3.7 21:05:51 10° SE 21:10:51 43° ENE 21:15:53 10° N
COSMOS 2406 4.3 21:05:48 10° NW 21:11:15 45° WSW 21:16:38 10° S
Cosmos 1825 3.0 21:08:27 10° SSE 21:11:54 33° E 21:15:22 10° NNE
Cosmos 1833 Rocket 4.1 21:07:25 10° N 21:12:02 25° NE 21:16:37 10° ESE
Cosmos 1975 Rocket 3.8 21:09:29 10° N 21:13:28 34° ENE 21:17:26 10° SE
DNEPR-1 R/B 4.3 21:08:47 10° NNW 21:14:22 53° NE 21:18:57 10° SE
Cosmos 2084 3.4 21:11:52 10° SSW 21:15:33 44° ESE 21:19:13 10° NE
Cosmos 676 Rocket 4.0 21:11:55 10° NNW 21:17:09 90° ENE 21:22:23 10° SSE
Cosmos 1174 3.6 21:14:58 10° NW 21:18:14 58° WSW 21:21:09 10° SSE
Cosmos 2278 Rocket 2.5 21:13:09 10° S 21:18:31 46° ESE 21:23:55 10° NE
Cosmos 1844 Rocket 2.7 21:13:03 10° SSW 21:18:43 89° ESE 21:24:24 10° NNE
COS B Rocket 3.5 21:16:54 10° N 21:20:53 49° E 21:24:26 10° SSE
Cosmos 1954 Rocket 4.0 21:15:51 10° NNW 21:21:04 77° ENE 21:26:19 10° SSE
Cosmos 1844 3.7 21:18:17 10° SSW 21:24:01 75° ESE 21:29:51 10° NNE
Cosmos 1378 Rocket 3.5 21:19:51 10° N 21:24:09 68° E 21:28:27 10° SSE
Cosmos 2056 Rocket 4.3 21:19:24 10° SW 21:24:28 57° WNW 21:29:31 10° NNE
Cosmos 1908 Rocket 3.6 21:21:14 10° S 21:25:37 69° E 21:30:03 10° NNE
USA 229 DEB 4.4 21:19:47 10° NNW 21:26:37 48° NE 21:33:31 10° ESE
Cosmos 1733 Rocket 4.0 21:22:22 10° SSW 21:26:41 53° WNW 21:30:59 10° N
USA 229 4.4 21:19:53 10° NNW 21:26:43 48° NE 21:33:36 10° ESE
Cosmos 2341 Rocket 4.1 21:24:57 10° S 21:31:06 59° E 21:37:15 10° NNE
BREEZE-M DEB (TANK) 4.0 21:17:17 10° WNW 21:34:22 83° SSW 21:38:18 13° ESE
deb Chang Zheng 4 3.6 21:30:26 10° NNE 21:34:51 69° ESE 21:39:16 10° S
Cosmos 2082 Rocket 2.9 21:30:34 10° NNW 21:36:00 43° NE 21:40:49 13° SE
Cosmos 1741 Rocket 4.3 21:31:02 10° NNW 21:36:09 52° ENE 21:40:44 13° SE
Cosmos 1023 Rocket 4.4 21:35:28 10° NNW 21:40:36 77° ENE 21:45:26 12° SSE
Nimbus 7 Rocket 4.4 21:34:57 10° NNE 21:40:52 67° ESE 21:46:49 10° S
SL-8 Rocket 4.4 21:35:30 10° SSE 21:41:20 43° E 21:47:09 10° NNE
Cosmos 962 Rocket 4.5 21:36:05 10° S 21:42:13 71° E 21:48:26 10° NNE
Timation 2 Rocket 3.9 21:37:50 10° NNW 21:43:52 77° ENE 21:49:13 13° SSE
USA 245 3.9 21:42:27 15° SE 21:45:03 40° ENE 21:49:08 10° N
Intercosmos 25 3.4 21:47:34 12° SSE 21:50:33 41° E 21:53:34 10° NNE
Cosmos 1862 3.7 21:48:38 10° SSW 21:52:42 69° W 21:56:47 10° N
COSMOS 2487 3.2 21:50:39 10° NNW 21:54:10 50° WSW 21:57:31 11° S
H-2A R/B 2.7 21:50:34 10° S 21:54:47 55° W 21:58:55 10° NNW
Cosmos 2297 4.0 21:49:28 10° S 21:54:53 46° ESE 22:00:20 10° NE
Cosmos 1606 4.0 21:51:11 10° NNW 21:54:53 40° W 21:58:34 10° SSW
Envisat 3.5 21:50:31 10° S 21:55:31 59° W 22:00:33 10° NNW
EO 1 Delta rocket 4.4 21:49:40 10° N 21:55:58 80° W 22:01:00 10° SSW
Cosmos 2154 Rocket 4.2 21:49:46 10° SSW 21:55:58 74° W 22:02:11 10° N
Cosmos 2151 Rocket 4.4 21:53:44 16° SE 21:56:41 33° E 22:00:46 10° NNE
NOAA 11 4.4 21:57:39 16° SSE 22:02:01 60° ENE 22:07:26 10° N
Cosmos 614 Rocket 3.9 21:57:45 10° NNW 22:02:53 79° ENE 22:06:40 18° SSE
APEX 3.6 22:00:13 10° SSW 22:04:10 62° ESE 22:09:23 10° NNE
CZ-4 SHROUD 3.4 22:05:12 18° S 22:07:24 66° WSW 22:10:29 10° NNW
Cosmos 1420 Rocket 3.9 22:02:32 10° SSW 22:07:47 82° ESE 22:13:01 10° NNE
PSLV R/B 3.5 22:05:42 17° S 22:07:47 58° WSW 22:10:43 10° NNW
MetOp-B 4.3 22:06:48 12° S 22:11:49 72° WSW 22:17:12 10° NNW
SL-8 R/B 4.2 22:08:16 10° W 22:13:04 62° N 22:17:51 10° ENE
Okean 3 4.5 22:09:18 10° NNW 22:13:24 45° W 22:17:25 10° SSW
Gbstr 26 Del rocket 3.8 22:09:43 10° WNW 22:15:01 56° NNE 22:18:30 16° E
Cosmos 1140 Rocket 4.0 22:10:18 10° NNW 22:15:19 54° WSW 22:19:38 14° S
CZ-4C R/B 4.0 22:17:11 25° SE 22:19:01 43° ENE 22:22:58 10° N
Landsat 7 4.1 22:19:26 24° SE 22:22:06 54° ENE 22:26:45 10° N
Cosmos 2366 rocket 4.1 22:16:58 14° S 22:22:19 63° E 22:28:35 10° NNE
CZ-4B R/B 3.3 22:20:59 10° NNE 22:25:57 77° ESE 22:30:09 14° S
H-2A R/B 2.4 22:22:52 24° SE 22:25:58 52° ENE 22:31:05 10° N
Cosmos 2369 Rocket 4.2 22:26:49 11° E 22:26:49 11° E 22:28:03 10° E
USA 234 4.0 22:22:15 10° ENE 22:27:39 27° SE 22:30:12 21° SSE
Okean 2 Rocket 3.8 22:24:00 10° SSW 22:28:18 52° WNW 22:32:38 10° N
Cosmos 1242 Rocket 3.9 22:26:08 10° NNW 22:29:32 37° W 22:32:16 14° SSW
SL-08 RB Rocket 3.7 22:27:35 24° SSE 22:30:22 90° ESE 22:35:04 10° NNW
NOSS 1 (D) 4.5 22:27:44 10° NW 22:30:50 84° WSW 22:31:34 48° SSE
ARGOS 3.2 22:28:02 20° S 22:31:51 78° WSW 22:37:14 10° NNW
ISS -2.7 22:29:05 10° WSW 22:32:18 57° NNW 22:35:32 10° ENE
YAOGAN 6 3.8 22:30:30 16° SSW 22:32:54 36° W 22:36:13 10° NNW
Terra 2.1 22:35:40 30° SE 22:37:49 54° ENE 22:42:28 10° N
SPOT 1/Viking Rocket 4.1 22:37:46 18° S 22:41:33 56° W 22:46:42 10° NNW
AVUM R/B 3.4 22:42:25 10° NNW 22:45:56 77° WSW 22:46:42 51° S
Meteor 1-20 Rocket 4.2 22:43:06 26° S 22:46:15 64° E 22:51:42 10° NNE
NOSS 8 (F) 4.4 22:48:44 32° SSW 22:50:12 72° SE 22:53:59 10° NE
Cosmos 2218 Rocket 4.3 22:45:06 10° SSW 22:51:29 71° W 22:57:54 10° N
Spot 4 4.1 22:50:39 35° SE 22:52:29 57° ENE 22:57:16 10° N
Okean 1 3.3 22:49:11 10° N 22:53:17 71° E 22:54:20 47° SSE
CARTOSAT-1 3.5 22:52:52 41° SSE 22:54:20 81° ENE 22:58:40 10° N
Cosmos 1833 Rocket 2.9 22:50:51 10° NNW 22:56:24 62° WSW 22:59:10 29° S
DELTA 2 DEB (DPAF) 4.3 22:56:30 34° S 22:58:21 70° WSW 23:02:50 10° NNW
Meteor 1-25 Rocket 4.3 22:57:31 20° SSW 23:01:38 84° W 23:07:30 10° N
Cosmos 2278 Rocket 4.0 22:57:42 10° WSW 23:02:45 32° NW 23:07:51 10° N
Cosmos 1727 Rocket 4.2 22:57:13 10° NNW 23:03:20 66° W 23:07:07 24° S
SAR-Lupe-2 3.6 23:03:06 55° E 23:03:25 58° ENE 23:06:57 10° N
Lacrosse 5 2.6 23:04:09 33° ESE 23:04:09 33° ESE 23:08:03 10° ENE
Cosmos 1536 Rocket 4.3 22:59:55 10° NNW 23:04:15 50° W 23:06:20 27° SSW
Meteor 2-19 Rocket 4.4 23:00:40 22° S 23:04:49 85° W 23:10:57 10° N
Iridium 4 Rocket 4.3 23:07:27 10° N 23:13:08 47° E 23:14:58 36° SE
Cosmos 1602 4.3 23:13:43 42° E 23:13:43 42° E 23:17:14 10° NNE
Cosmos 1812 3.2 23:09:51 10° NNW 23:13:39 53° W 23:14:33 42° SW
ASTEX 1 3.3 23:11:18 10° N 23:16:16 75° E 23:17:44 46° SSE
USA 229 DEB 4.3 23:10:54 10° NW 23:17:39 47° WSW 23:20:58 29° S
USA 229 4.3 23:11:00 10° NW 23:17:45 47° WSW 23:21:04 29° S
Cosmos 2082 Rocket 3.4 23:14:56 10° NW 23:19:56 32° WSW 23:22:40 21° SSW
Cosmos 1503 Rocket 4.3 23:20:12 10° NNW 23:25:22 56° ENE 23:26:48 42° ESE
DMSP B5D2-2 4.1 23:21:13 10° N 23:26:27 77° WNW 23:28:54 32° SSW
Genesis I 4.0 23:27:48 41° ENE 23:27:48 41° ENE 23:30:44 10° NE
Cosmos 1331 Rocket 4.1 23:24:05 27° SSW 23:26:55 74° WNW 23:32:06 10° NNE
Meteor 2-4 Rocket 3.9 23:23:24 10° N 23:28:45 54° ENE 23:30:11 42° ESE
CZ-4B R/B 4.0 23:30:56 11° ENE 23:30:56 11° ENE 23:31:24 10° NE
IGS 5A 4.2 23:30:58 39° SW 23:31:48 45° W 23:35:50 10° NNW
Cosmos 1315 Rocket 3.9 23:34:55 31° ENE 23:34:55 31° ENE 23:37:45 10° NNE
Meteor 1-13 Rocket 4.4 23:29:23 10° NNW 23:35:21 75° W 23:37:28 41° S
NOSS 3-1 (A) 4.0 23:28:41 10° NW 23:36:12 83° NE 23:40:02 36° SE
Lacrosse 5 rocket 2.3 23:38:52 33° ENE 23:38:52 33° ENE 23:41:02 10° NE
Cosmos 1025 Rocket 2.9 23:34:10 10° N 23:38:35 78° E 23:38:57 71° SE
Cosmos 1821 Rocket 3.9 23:36:41 43° S 23:38:50 75° E 23:45:04 10° NNE
Cosmos 1605 Rocket 4.5 23:38:08 39° SE 23:39:41 46° E 23:45:45 10° NNE
Okean 2 4.0 23:37:38 10° N 23:41:36 43° ENE 23:41:36 43° ENE
Meteor 2-21 Rocket 4.4 23:41:15 46° SSE 23:43:11 73° E 23:49:23 10° NNE
Cosmos 1455 Rocket 4.0 23:47:53 33° ENE 23:47:53 33° ENE 23:51:21 10° NNE
Cosmos 2285 Rocket 4.0 23:47:10 47° SSE 23:48:45 61° ESE 23:55:03 10° NNE
Cosmos 1934 Rocket 3.8 23:47:59 49° SSE 23:49:41 76° E 23:55:45 10° NNE
Meteor 1-11 Rocket 3.8 23:49:24 43° SSW 23:51:26 80° WNW 23:57:14 10° N
ALOS 2 3.5 23:52:11 36° ENE 23:52:30 36° ENE 23:56:31 10° N
Cosmos 1346 Rocket 4.3 23:49:21 10° NNE 23:52:25 26° ENE 23:52:25 26° ENE
Okean 1 Rocket 4.1 23:52:59 31° WSW 23:54:26 40° WNW 23:58:41 10° N
BREEZE-M TANK 2.8 23:49:45 10° WNW 23:56:11 58° SW 23:56:11 58° SW
